Location: Unspecified
(0.0000°N, 0.0000°E)
Time: 10:04:00
(UTC+00:00)

XW-2B - Pass Details

Date: 13 December 2017
Orbit: 510 x 530 km, 97.5° (Epoch: 24 June)

Event Time Altitude Azimuth Distance (km) Brightness Sun altitude
Rises 05:02:07 0° 37° (NE) 2,658 ? -11.9°
Reaches altitude 10° 05:04:43 10° 56° (NE) 1,770 ? -11.4°
Maximum altitude 05:07:25 19° 101° (ESE) 1,315 ? -10.7°
Drops below altitude 10° 05:10:07 10° 147° (SSE) 1,770 ? -10.1°
Sets 05:12:42 0° 165° (SSE) 2,658 ? -9.5°
